2021-033E (48252 NORAD) Tracking and Keplerian Element Data

This shows tracking and keplerian element data for the satellite.

Feedback or suggestion? Click here.




ElementValue
Catalog48252
Name2021-033E
Epoch Orbit456
Epoch Day147.25609692
Epoch Year2021
RAAN222.575
Inclination97.3918
Eccentricity0.0011847
Argument of Perigee164.3389
Mean Anonmoly281.7864
Mean Motion15.21437811
Decay Rate9.79E-06
L11 48252U 21033E 21147.25609692 .00000979 00000-0 46624-4 0 9995
L22 48252 97.3918 222.5750 0011847 164.3389 281.7864 15.21437811 4562

Live tracking and technical data element details for 2021-033E (NORAD 48252). 2021-033E can be tracked NOW for your location showing map with azimuth and elevation plus other details from your city location.

Track the satellite on the map from your city or location and see movement details for azimuth, elevation, latitude, longitude, range, height, and movement on the map or in text.







IsCatalogInMostPopularTable: catalog: 48252, numindb: 21
Update: records affected: 1



GetName: 48252 2021-033E

Hit Count: updated at: Mon, 21 Jun 2021 04:13:12 GMT